Home > Weather > Puerto Vallarta > Past weeks

Flag for Mexico Weather for the Past 2 Weeks in Puerto Vallarta, Jalisco, Mexico

Now
81 °F

Partly sunny.


Feels Like: 83 °F
Forecast: N/A
Wind: 9 mph from Southwest

Location: Puerto Vallarta / Lic

Current Time: Feb 6, 2016 at 3:32:07 PM

Latest Report: Feb 6, 2016 at 2:47 PM


Visibility: 15 mi

Pressure: 29.90 "Hg

Humidity: 62%

Dew point: 66 °F

Location of Puerto VallartaLocation

Historic Weather in Puerto Vallarta — Graph

°F

Puerto Vallarta Temperature Yesterday

Maximum temperature yesterday: 81 °F (at 11:45 AM)
Minimum temperature yesterday: 61 °F (at 4:45 AM)
Average temperature yesterday: 71 °F

High & Low Weather Summary for the Past Weeks

 TemperatureHumidityPressure
High86 °F (Jan 24, 12:49 PM)100% (Feb 1, 4:56 AM)30.05 "Hg (Feb 1, 4:56 AM)
Low55 °F (Feb 4, 6:55 AM)29% (Jan 28, 12:46 PM)29.86 "Hg (Jan 27, 4:47 PM)
Average71 °F73%29.95 "Hg
* Reported Jan 22 1:43 PM — Feb 6 1:47 PM, Puerto Vallarta, Weather by CustomWeather, © 2016

Note: Actual official high and low records may vary slightly from our data, if they occured in-between our weather recording intervals... More about our weather records

Advertising

Puerto Vallarta Weather History for the Previous 24 Hours

 ConditionsComfort  
Time TempWeatherWind HumidityBarometerVisibility
1:47 PM
Sat, Feb 6
81 °FScattered clouds.9 mph58%29.92 "Hg15 mi
12:46 PM81 °FPassing clouds.8 mph58%29.94 "Hg15 mi
11:50 AM79 °FPassing clouds.9 mph61%29.96 "Hg15 mi
10:47 AM79 °FSunny.No wind54%29.98 "Hg15 mi
9:47 AM72 °FSunny.6 mph69%30.00 "Hg15 mi
8:49 AM66 °FSunny.3 mph78%29.98 "Hg15 mi
7:47 AM61 °FSunny.5 mph94%29.99 "Hg15 mi
6:48 AM63 °FClear.5 mph88%29.99 "Hg12 mi
5:47 AM63 °FClear.7 mph94%29.97 "Hg12 mi
3:46 AM64 °FClear.No wind94%29.97 "Hg12 mi
2:47 AM66 °FPassing clouds.5 mph88%29.99 "Hg12 mi
12:46 AM68 °FPassing clouds.5 mph94%29.99 "Hg12 mi
11:52 PM
Fri, Feb 5
68 °FPassing clouds.No wind94%29.98 "Hg12 mi
10:52 PM70 °FPassing clouds.5 mph88%29.98 "Hg12 mi
9:49 PM73 °FPassing clouds.7 mph83%29.97 "Hg12 mi
6:47 PM77 °FPartly sunny.8 mph69%29.94 "Hg15 mi
4:46 PM79 °FPartly sunny.10 mph70%29.93 "Hg15 mi
3:45 PM79 °FPartly sunny.12 mph65%29.93 "Hg15 mi
Weather by CustomWeather, © 2016

See weather overviewHow to use our weather pages